Location: Aranbee
(34.0885°N, 118.2342°W)
Time: 17:00:48
(UTC+00:00)

A-11 Canister half - Pass Details

Date: 02 August 2021
Orbit: 1514 x 1685 km, 47.2° (Epoch: 17 September)

Event Time Altitude Azimuth Distance (km) Brightness Sun altitude
Rises 09:01:55 0° 296° (WNW) 4,939 11.7 -36.1°
Reaches altitude 10° 09:05:50 10° 284° (WNW) 3,949 11.1 -35.9°
Enters shadow 09:07:31 15° 277° (W) 3,588 10.8 -35.8°
